SCP
2 2 3 3 3 2 2 2 2 2 2 2 2 2 2 1 1 1 1 1 1 1 1 1 1 1 1 1 2 2 2 1 1 1 1 1 1 1 1 1 1 1 1
2 2 3 3 3 2 2 2 2 2 2 2 2 2 2 2 2 2 2 1 1 1 1 1 1 1 1 1 2 2 2 2 2 1 1 1 1 1 1 1 1 1 1
2 2 2 3 2 2 2 2 2 2 2 2 2 2 2 2 2 2 2 2 1 1 1 1 1 1 1 1 1 2 2 2 2 2 1 1 1 1 1 1 1 1 1
2 2 2 2 2 2 2 2 2 2 2 2 2 2 2 2 2 2 1 1 1 1 1 1 1 1 1 1 1 1 1 1 1 1 1 1 1 1 1 1 1 1 1
2 2 2 2 2 2 2 2 2 2 2 2 2 2 2 2 1 1 1 1 1 1 1 1 1 1 1 1 1 1 1 1 1 1 1 1 1 1 1 1 1 1 1
3 2 2 2 2 2 2 2 2 2 3 3 2 2 2 2 2 2 1 1 1 1 1 1 1 1 1 1 1 1 1 1 1 1 1 1 1 2 2 2 1 1 1
3 3 3 2 2 2 2 2 2 3 3 3 3 2 2 2 2 2 2 2 2 2 1 1 1 1 1 1 1 1 1 1 1 1 1 1 2 2 2 2 2 1 1
3 3 3 3 3 3 3 3 3 3 3 3 3 2 2 2 2 2 2 2 2 2 2 1 1 1 1 1 1 1 1 1 1 1 1 1 2 2 2 2 2 2 2
2 3 3 3 3 3 3 3 3 3 3 3 3 2 2 2 2 2 2 2 2 2 2 1 1 1 1 1 1 1 1 1 1 1 1 1 2 2 2 1 2 2 2
2 3 3 4 4 3 3 4 4 4 4 3 3 3 2 2 2 2 2 2 2 2 2 2 2 1 1 1 2 2 2 1 1 1 1 1 2 2 1 1 1 2 2
2 3 3 4 4 4 4 4 5 5 5 4 3 3 2 2 2 2 2 2 2 2 2 2 2 2 2 1 2 2 2 1 1 1 1 1 2 1 1 1 2 2 2
3 3 4 4 5 5 6 6 6 6 6 5 4 3 3 2 2 2 3 3 2 2 2 2 2 2 1 1 1 2 2 2 2 2 2 2 1 1 1 1 1 2 2
4 3 3 4 5 6 7 8 7 7 6 5 4 4 4 3 3 3 3 3 3 2 2 2 2 2 1 1 1 1 2 2 2 1 1 1 1 1 1 1 1 2 2
5 4 4 4 5 6 7 7 7 7 6 6 6 5 5 4 4 4 4 4 3 3 3 3 2 2 2 1 1 1 1 1 1 1 1 1 1 1 1 1 1 1 1
6 5 5 5 6 7 7 6 6 6 6 7 7 6 6 5 4 4 4 4 4 3 3 3 2 2 2 2 2 1 1 1 1 1 1 1 1 1 1 1 1 1 1
6 6 6 6 7 7 7 6 6 6 6 6 7 6 6 5 4 4 4 4 4 3 3 3 3 3 3 3 2 2 2 2 1 1 1 1 1 1 1 1 1 1 1
6 6 7 6 7 7 7 7 6 6 6 6 6 6 5 5 4 4 4 4 3 3 3 3 3 4 4 3 3 2 2 2 1 1 1 1 1 1 1 1 1 1 1
5 6 7 7 7 7 6 6 6 6 6 6 6 5 5 4 4 4 4 4 3 3 3 3 3 4 4 3 3 2 2 2 2 1 1 1 1 1 1 1 1 1 1
5 5 6 8 8 7 6 6 6 6 6 6 6 5 4 4 4 4 5 4 3 3 3 2 3 3 3 3 2 2 2 2 2 1 1 1 1 1 1 1 1 1 1
5 4 5 7 8 7 6 5 5 5 6 6 5 4 4 4 4 5 5 4 3 3 2 2 2 2 3 3 2 1 1 1 1 1 1 1 1 1 1 2 2 2 2
4 4 4 5 6 6 6 5 5 5 5 5 5 4 4 4 4 5 4 3 3 2 2 2 2 2 2 2 1 1 1 1 1 1 1 1 1 1 1 2 2 2 3
4 4 4 4 5 5 6 5 5 5 5 5 4 4 4 4 3 3 3 3 3 3 2 2 2 1 1 1 1 1 1 1 1 1 1 1 1 1 1 2 2 2 2
4 4 4 4 5 5 6 6 6 6 6 6 5 4 4 4 3 3 3 3 4 4 3 2 2 1 1 1 1 1 1 1 1 1 1 1 1 1 2 2 2 2 2
3 4 4 4 5 5 6 6 6 7 7 6 5 5 4 4 3 3 3 3 4 3 3 2 2 2 1 1 1 1 1 1 1 1 1 1 1 1 2 2 3 2 2
4 4 5 5 5 6 6 6 6 7 7 7 5 5 5 4 4 3 3 3 3 3 2 3 2 2 1 1 1 1 1 1 1 1 1 1 1 1 2 2 3 3 3
5 5 6 6 5 5 5 5 5 7 7 6 5 5 5 5 4 3 3 3 3 3 3 3 3 2 2 2 2 2 2 1 1 1 1 1 1 1 2 2 3 3 3
Wind_Speed
11 15 17 13 12 11 11 13 13 13 13 13 13 12 12 11 10 10 10 9 8 7 7 6 6 5 5 5 5 5 5 4 4 4 5 5 5 5 5 5 6 6 10
13 16 16 13 12 12 12 13 13 13 13 13 13 12 12 11 10 9 9 8 7 7 6 6 5 5 5 4 4 4 4 4 4 4 4 6 6 5 4 4 3 4 8
14 16 16 13 12 12 12 12 13 13 13 13 13 12 11 11 10 9 8 8 7 6 6 5 5 4 4 4 4 4 4 3 3 3 6 6 7 7 5 4 3 4 6
14 14 14 14 12 12 12 12 13 13 13 12 12 12 11 10 9 8 8 7 7 6 5 5 4 4 3 3 3 3 3 3 3 4 7 4 4 8 6 5 5 5 6
13 13 14 14 13 13 12 12 12 12 12 12 11 11 10 9 8 7 7 7 6 6 5 5 4 3 3 3 3 3 3 4 4 8 5 3 2 7 5 6 6 6 6
14 13 15 14 13 13 13 12 12 11 11 11 11 10 9 8 7 7 6 6 6 5 5 5 4 3 3 3 3 3 4 5 8 7 4 4 3 6 5 6 7 7 7
14 13 15 13 13 13 13 12 11 11 10 10 10 9 9 8 7 6 6 6 5 5 4 4 4 3 3 4 4 4 4 6 9 5 4 5 2 5 5 7 8 8 8
13 13 14 14 13 12 12 12 11 10 10 9 9 9 8 8 7 6 6 5 5 5 4 4 3 3 4 4 4 4 5 7 8 7 5 5 2 3 5 7 7 8 8
12 12 13 14 13 12 11 11 10 9 8 8 8 7 7 7 6 6 5 4 4 4 4 3 3 4 4 4 4 5 6 7 10 5 6 4 4 3 6 7 7 8 8
11 10 11 11 11 11 11 11 10 9 8 7 7 7 6 7 7 6 6 5 3 3 4 3 3 4 5 5 5 6 7 9 10 7 5 2 4 4 6 7 7 8 8
10 9 9 9 9 9 9 10 10 9 8 8 8 8 7 6 6 6 4 4 3 3 3 3 3 4 5 6 6 6 8 7 7 5 4 1 2 5 6 7 7 7 8
11 11 9 9 9 8 6 7 6 6 7 5 5 6 5 3 2 2 6 4 3 3 4 4 5 6 7 4 5 6 5 6 6 4 2 1 3 6 7 7 7 7 8
11 9 9 8 7 7 5 5 4 3 4 5 5 4 3 3 3 3 2 4 5 6 5 4 6 4 4 3 4 4 4 5 4 4 2 2 4 6 6 7 7 8 9
10 9 9 8 7 6 5 4 4 4 3 3 4 4 3 2 2 2 2 2 2 2 2 3 3 3 4 5 6 6 6 5 4 4 2 3 5 6 7 8 8 7 8
9 9 8 8 7 6 5 4 4 4 3 4 3 3 3 2 2 2 1 2 3 2 3 3 3 3 4 5 5 6 6 5 6 5 3 4 5 7 8 8 8 9 9
9 8 8 8 7 6 5 4 4 4 4 3 3 3 4 2 2 2 2 2 2 2 2 3 4 4 4 4 5 4 5 5 5 5 5 4 6 7 7 8 8 9 9
8 8 8 8 7 7 6 6 4 4 4 3 3 3 3 3 2 2 2 2 2 2 3 3 3 4 4 4 4 4 4 5 5 5 6 5 4 7 7 7 8 8 8
7 8 8 7 7 7 6 5 4 3 3 3 2 2 3 2 2 2 2 2 2 2 2 3 3 3 3 4 4 4 4 4 5 5 5 5 4 4 5 6 6 7 7
7 7 7 7 7 7 7 5 4 3 3 2 2 2 2 2 2 2 2 2 3 2 2 3 2 3 4 4 4 4 4 4 4 4 4 5 4 4 4 4 5 6 6
6 6 6 7 6 6 5 5 4 4 3 3 2 2 2 2 2 2 2 2 3 2 2 2 3 3 4 4 5 4 4 3 3 3 4 3 3 4 5 4 4 4 5
6 6 6 6 6 5 4 5 4 4 3 3 2 2 3 2 2 2 2 1 2 2 2 3 3 3 3 3 4 4 3 4 2 2 3 3 3 3 4 4 3 3 3
7 7 6 6 6 6 4 3 3 3 2 2 2 2 2 2 2 2 2 2 2 2 2 2 3 3 3 2 4 4 3 3 3 2 3 3 3 4 4 4 3 3 4
7 7 6 6 6 5 5 4 3 3 3 3 3 2 2 2 2 1 2 2 2 3 2 2 2 3 3 2 2 4 4 3 3 2 3 3 4 4 4 3 4 3 3
7 6 6 6 5 5 5 5 5 4 3 2 2 2 2 2 2 2 1 2 2 2 2 2 1 2 3 3 2 2 4 5 5 3 3 3 4 4 4 4 4 3 3
7 6 6 6 5 5 5 5 5 4 3 2 2 2 1 2 2 2 2 2 2 2 1 2 1 2 3 3 3 3 3 4 6 6 5 4 4 4 3 4 3 3 3
6 6 6 6 6 5 5 5 5 4 3 3 3 2 2 1 1 2 2 2 2 2 2 2 2 2 3 3 4 4 4 4 4 5 6 6 5 4 4 3 4 4 3
Wind_Direction
153 144 145 152 151 149 147 146 146 145 144 143 144 146 146 146 147 149 147 144 142 140 136 131 128 123 122 123 123 123 122 124 126 133 137 142 143 149 154 160 189 170 126
148 143 146 150 150 150 148 147 146 145 144 144 146 148 148 148 148 148 147 146 145 143 139 135 135 134 132 131 132 134 135 140 144 151 161 171 166 165 168 182 249 103 137
145 143 151 150 151 151 148 146 146 146 146 146 147 148 149 149 150 151 151 150 149 147 144 142 142 143 141 142 147 152 153 160 168 180 213 210 164 163 178 187 179 143 160
144 146 151 148 151 150 149 147 146 146 147 148 149 149 149 151 152 154 156 154 153 151 149 152 154 153 152 154 165 175 181 183 191 219 225 210 178 147 178 188 186 184 181
144 147 143 152 153 153 152 149 147 147 148 148 149 148 148 150 151 155 159 159 159 160 164 165 162 166 179 187 198 203 208 211 215 239 236 220 197 136 181 199 199 195 195
150 151 143 155 155 155 153 148 145 145 146 147 148 148 149 150 151 155 158 158 159 163 166 168 171 181 198 206 213 219 225 230 235 231 225 231 214 143 196 212 208 207 205
151 149 144 153 154 154 152 148 148 148 148 149 150 151 152 152 154 158 162 164 162 165 167 170 174 186 211 216 223 229 234 241 255 244 232 234 200 135 208 223 216 214 212
151 150 142 151 154 154 154 153 152 150 151 153 153 152 152 153 157 163 169 173 172 178 183 186 191 205 222 233 236 241 247 258 250 248 241 241 127 163 226 230 225 219 218
153 153 152 157 158 158 159 157 154 151 152 154 154 155 158 161 167 173 176 180 184 189 196 206 212 224 232 239 243 248 253 260 269 256 248 245 131 201 231 232 226 221 220
156 160 159 160 160 165 162 158 157 156 156 158 159 160 165 172 177 180 186 173 186 201 211 222 233 240 241 240 243 251 256 255 255 260 256 213 143 226 239 236 231 227 224
161 165 165 164 165 171 164 152 162 163 164 173 172 168 188 194 183 180 171 147 181 203 223 238 251 256 255 232 236 251 251 250 256 265 269 63 199 242 246 245 242 237 232
169 171 170 169 170 173 166 157 174 174 165 184 175 177 193 189 201 197 132 155 199 222 225 228 248 248 251 245 218 231 251 256 264 260 256 140 246 251 251 250 251 246 239
170 172 172 172 172 176 172 170 177 179 170 180 179 184 198 204 195 210 188 178 204 220 232 210 229 246 257 272 276 258 266 271 267 264 251 189 251 257 256 255 259 255 248
173 174 175 172 174 181 182 175 180 180 178 180 175 199 199 207 216 217 230 233 232 231 245 261 257 265 272 270 267 266 260 260 268 266 243 203 244 256 258 259 263 262 256
177 175 176 174 175 178 185 193 180 185 183 176 183 186 212 212 218 230 244 257 264 266 250 265 280 280 276 269 265 267 271 267 264 264 248 206 233 252 255 257 262 261 255
180 178 176 179 178 180 185 190 187 188 186 193 185 189 211 225 225 242 240 254 269 276 298 288 287 278 275 279 276 277 276 274 263 264 265 230 214 235 249 256 259 261 256
182 179 181 182 181 185 189 194 192 191 190 197 187 193 207 222 224 245 260 258 278 281 272 272 282 278 270 270 272 270 263 264 268 265 263 264 242 219 231 246 255 258 259
181 179 185 185 181 186 192 198 200 197 194 196 196 193 205 220 223 245 261 270 269 264 267 271 274 280 286 287 286 280 269 254 261 261 260 257 268 266 224 221 244 253 256
177 175 177 185 187 190 189 188 194 191 202 199 197 203 203 215 218 231 246 268 265 266 269 280 294 293 292 295 287 276 271 262 263 261 264 261 264 269 263 202 218 239 252
176 176 174 179 182 185 185 182 192 194 199 202 196 198 216 216 220 236 231 244 265 267 275 290 287 284 287 292 289 286 269 268 268 272 265 260 257 262 264 264 237 218 226
173 171 176 182 181 182 184 196 198 201 201 199 202 194 208 221 222 229 247 235 255 267 287 290 284 277 279 293 285 283 253 229 245 266 266 272 265 273 273 268 265 269 230
175 176 177 184 186 188 188 199 207 205 200 188 191 178 207 219 226 223 237 238 244 260 257 275 278 288 294 298 297 291 277 231 207 251 251 261 278 278 275 267 272 270 280
180 182 180 183 184 187 188 191 183 182 194 189 184 182 189 201 220 248 239 260 260 262 259 266 268 276 286 287 297 301 300 307 313 229 252 258 265 267 270 273 266 273 274
186 179 179 181 180 181 188 197 192 202 206 184 183 177 184 196 209 224 237 248 257 260 265 259 273 272 273 283 275 281 296 313 294 291 255 255 264 261 265 265 265 258 263
184 177 175 177 180 180 187 189 196 204 190 168 161 155 195 184 191 193 208 224 240 247 256 277 282 281 277 284 290 285 280 275 270 283 292 291 278 267 265 262 264 262 258
176 170 169 174 176 177 183 189 199 196 188 180 181 191 208 180 176 182 206 220 237 243 234 246 257 254 275 286 287 287 286 288 286 287 289 291 290 285 275 265 256 256 250